[[{"header":{"parameterUnit":"m.s-1","parameterCategory":1,"la1":30.2991,"la2":30.254,"lo1":-89.0895,"lo2":-89.0444,"dy":0.0017,"dx":0.0017,"nx":28,"ny":28,"refTime":"2025-09-17T09:00:00:Z","depth":0,"parameterNumber":2,"parameterNumberName":"U-component_of_WINDS"},"data":[0,0,0,0,0,0,0,0,0,0,0,0,0,0,0,0,0,0,0,0,0,0,0,0,0,0,0,0,0,0,0,0,0,0,0,0,0,0,0,0,0,0,0,0,0,0,0,0,0,0,0,0,0,0,0,0,0,0,-1.8378,-1.8378,0,-1.8366,-1.8366,-1.8365,-1.8317,-1.8316,-1.8314,-1.8313,-1.8301,-1.8302,-1.8303,0,0,0,0,0,0,0,0,0,0,0,0,0,-1.8362,-1.8363,-1.8378,-1.8378,-1.8378,-1.8366,-1.8366,-1.8365,-1.8317,-1.8316,-1.8314,-1.8313,-1.8301,-1.8302,-1.8303,0,0,0,0,0,0,0,0,0,0,0,0,0,-1.8361,-1.8363,-1.8378,-1.8352,-1.835,-1.8366,-1.8366,-1.8365,-1.8317,-1.8316,-1.8314,-1.8312,-1.8301,-1.8302,-1.8303,-1.8343,0,0,-1.8306,-1.8306,0,0,0,0,0,0,0,0,-1.8361,-1.8362,-1.8356,-1.8354,-1.8351,-1.8341,-1.8355,-1.8358,-1.8318,-1.833,-1.8313,-1.8311,-1.8316,-1.8316,-1.8317,-1.8342,-1.8342,-1.8306,-1.8307,-1.8307,-1.8308,0,0,0,0,0,0,0,-1.8362,-1.8362,-1.8373,-1.8356,-1.8353,-1.8342,-1.834,-1.8356,-1.8332,-1.8328,-1.8325,-1.8324,-1.8314,-1.8316,-1.8316,-1.8342,-1.8306,-1.8307,-1.8308,-1.8308,-1.8402,-1.8404,0,0,0,0,0,0,-1.8365,-1.8363,-1.8374,-1.8373,-1.8352,-1.8344,-1.8341,-1.8346,-1.8332,-1.8328,-1.8325,-1.8322,-1.8315,-1.8315,-1.8316,-1.8363,-1.8307,-1.8308,-1.8309,-1.84,-1.8402,-1.8404,0,0,0,0,0,0,-1.8365,-1.8366,-1.8374,-1.8367,-1.8367,-1.8346,-1.8351,-1.8347,-1.8348,-1.833,-1.8325,-1.8331,-1.8314,-1.8314,-1.8337,-1.8362,-1.8309,-1.831,-1.8398,-1.8401,-1.8403,-1.8457,0,0,0,0,0,0,-1.8365,-1.8367,-1.8381,-1.8367,-1.8367,-1.8395,-1.8353,-1.8348,-1.835,-1.8345,-1.8334,-1.8331,-1.8312,-1.8336,-1.8338,-1.8362,-1.8311,-1.8396,-1.8399,-1.8403,-1.8453,-1.8461,-1.8469,0,0,0,0,0,-1.8364,-1.8396,-1.8382,-1.8384,-1.8385,-1.8397,-1.8397,-1.8375,-1.8352,-1.8367,-1.8356,-1.8331,-1.8359,-1.8338,-1.8341,-1.8366,-1.8394,-1.8398,-1.8402,-1.845,-1.846,-1.8468,0,0,0,0,0,0,-1.8413,-1.8394,-1.8378,-1.8406,-1.8404,-1.8388,-1.8406,-1.8386,-1.8389,-1.8384,-1.8357,-1.8355,-1.8383,-1.8376,-1.8354,-1.8405,-1.8373,-1.8377,-1.8408,-1.8417,-1.8425,-1.8425,-1.8311,0,0,0,0,0,-1.8427,-1.8438,-1.8421,-1.8448,-1.8447,-1.8427,-1.8431,-1.8415,-1.8411,-1.8409,-1.8399,-1.8397,-1.8405,-1.8411,-1.8417,-1.8453,-1.845,-1.8471,-1.8479,-1.8485,-1.849,-1.8509,-1.8519,-1.8418,-1.8418,-1.8418,0,0,-1.8456,-1.8447,-1.8455,-1.8457,-1.8453,-1.8466,-1.8426,-1.8441,-1.845,-1.8412,-1.8433,-1.8426,-1.8421,-1.8451,-1.8463,-1.8447,-1.8517,-1.8491,-1.8496,-1.8496,-1.8515,-1.8524,-1.8533,-1.8421,-1.842,-1.842,0,0,-1.8516,-1.851,-1.8532,-1.8529,-1.8524,-1.851,-1.8516,-1.8505,-1.8498,-1.8519,-1.8492,-1.8503,-1.8517,-1.8515,-1.8517,-1.8579,-1.8557,-1.8582,-1.8622,-1.8641,-1.8649,-1.8656,-1.8679,-1.8687,-1.8586,-1.8586,-1.8586,0,-1.8552,-1.8569,-1.8546,-1.8563,-1.8565,-1.8532,-1.8555,-1.8554,-1.8551,-1.8553,-1.8535,-1.8554,-1.8548,-1.8578,-1.8593,-1.8595,-1.8601,-1.8582,-1.865,-1.8657,-1.8663,-1.8684,-1.8693,-1.8589,-1.8589,-1.8589,-1.8588,0,-1.8615,-1.8628,-1.8647,-1.8645,-1.865,-1.867,-1.8651,-1.8658,-1.8642,-1.8632,-1.8655,-1.8647,-1.8653,-1.8659,-1.8643,-1.8687,-1.8677,-1.8655,-1.8621,-1.8676,-1.8696,-1.8704,-1.8594,-1.8593,-1.8592,-1.8591,0,0,-1.8703,-1.869,-1.8697,-1.8697,-1.869,-1.8699,-1.8719,-1.8724,-1.8732,-1.8732,-1.8748,-1.8762,-1.8743,-1.8744,-1.8728,-1.8745,-1.8796,-1.8721,-1.8721,-1.8736,-1.8846,-1.8862,-1.8872,-1.8782,-1.8784,-1.8785,-1.8846,0,-1.876,-1.8791,-1.8772,-1.8807,-1.8819,-1.8789,-1.8806,-1.8804,-1.8796,-1.8805,-1.8796,-1.8807,-1.8779,-1.878,-1.8796,-1.8787,-1.8818,-1.8782,-1.8798,-1.8798,-1.8799,-1.8882,-1.8899,-1.8957,-1.8854,-1.8855,-1.8856,0,-1.8829,-1.8833,-1.8869,-1.8861,-1.8866,-1.8881,-1.8886,-1.8895,-1.8893,-1.8886,-1.8889,-1.887,-1.889,-1.8858,-1.8885,-1.8861,-1.8867,-1.8864,-1.8865,-1.8865,-1.883,-1.8884,-1.8975,-1.8983,-1.8868,-1.8867,-1.8866,0,-1.889,-1.8904,-1.8928,-1.8929,-1.892,-1.8932,-1.8929,-1.8925,-1.8931,-1.8935,-1.8938,-1.8945,-1.8949,-1.8955,-1.8939,-1.8917,-1.8969,-1.8936,-1.8964,-1.8965,-1.8975,-1.8975,-1.9068,-1.898,-1.898,-1.898,-1.8979,0,-1.8955,-1.8979,-1.8955,-1.897,-1.8996,-1.8975,-1.9001,-1.8995,-1.8993,-1.9007,-1.8982,-1.8996,-1.8973,-1.8985,-1.8973,-1.8998,-1.9,-1.8995,-1.8992,-1.8997,-1.8998,-1.9,-1.8995,-1.8982,-1.8981,-1.8981,-1.8981,0,-1.9027,-1.9012,-1.9036,-1.9027,-1.9025,-1.9045,-1.9037,-1.9051,-1.9042,-1.906,-1.9063,-1.9048,-1.9061,-1.9046,-1.9057,-1.9049,-1.9084,-1.9074,-1.9084,-1.9081,-1.9111,-1.9109,-1.9208,-1.9221,-1.9125,-1.9126,-1.9126,0,-1.9069,-1.9087,-1.908,-1.9087,-1.9086,-1.9098,-1.9103,-1.9084,-1.9091,-1.9092,-1.9106,-1.9117,-1.9124,-1.9147,-1.9138,-1.9147,-1.9138,-1.9172,-1.9139,-1.9144,-1.9138,-1.9138,-1.914,-1.9178,-1.918,-1.9181,-1.9181,0,-1.9146,-1.9138,-1.9147,-1.9154,-1.9161,-1.9166,-1.9169,-1.9176,-1.9157,-1.9166,-1.9179,-1.9185,-1.9198,-1.9209,-1.9217,-1.9214,-1.9195,-1.9192,-1.9199,-1.9205,-1.921,-1.9208,-1.9103,-1.919,-1.9189,-1.9188,-1.9188,-1.9187,-1.9204,-1.9219,-1.9217,-1.9228,-1.9228,-1.9232,-1.9245,-1.9238,-1.9248,-1.9257,-1.9245,-1.9262,-1.9262,-1.9269,-1.927,-1.9284,-1.9269,-1.9279,-1.9282,-1.9284,-1.9289,-1.9209,-1.9285,-1.9284,-1.9284,-1.9284,-1.9284,0,-1.928,-1.9278,-1.9289,-1.9293,-1.9303,-1.9284,-1.9287,-1.9296,-1.9311,-1.9312,-1.9321,-1.9337,-1.9349,-1.9342,-1.9352,-1.9364,-1.9356,-1.9368,-1.9367,-1.9367,-1.9301,-1.9294,-1.9375,-1.9375,-1.9375,-1.9375,-1.9375,-1.9375,-1.9321,-1.9345,-1.9338,-1.9363,-1.936,-1.9376,-1.938,-1.9384,-1.9385,-1.9404,-1.9414,-1.9409,-1.9407,-1.9418,-1.9429,-1.9426,-1.9431,-1.9447,-1.9441,-1.938,-1.9371,-1.9363,-1.9356,-1.9448,-1.9448,-1.9505,-1.9506,-1.9506]},{"header":{"parameterUnit":"m.s-1","parameterCategory":1,"la1":30.2991,"la2":30.254,"lo1":-89.0895,"lo2":-89.0444,"dy":0.0017,"dx":0.0017,"nx":28,"ny":28,"refTime":"2025-09-17T09:00:00:Z","depth":0,"parameterNumber":3,"parameterNumberName":"V-component_of_WINDS"},"data":[0,0,0,0,0,0,0,0,0,0,0,0,0,0,0,0,0,0,0,0,0,0,0,0,0,0,0,0,0,0,0,0,0,0,0,0,0,0,0,0,0,0,0,0,0,0,0,0,0,0,0,0,0,0,0,0,0,0,4.1597,4.1597,0,4.1614,4.1615,4.1615,4.1657,4.1657,4.1658,4.1659,4.1672,4.1672,4.1672,0,0,0,0,0,0,0,0,0,0,0,0,0,4.1597,4.1596,4.1597,4.1597,4.1597,4.1614,4.1615,4.1615,4.1656,4.1657,4.1659,4.166,4.1673,4.1672,4.1671,0,0,0,0,0,0,0,0,0,0,0,0,0,4.1603,4.1596,4.1597,4.162,4.1623,4.1614,4.1615,4.1615,4.1656,4.1658,4.1659,4.166,4.1673,4.1672,4.1671,4.164,0,0,4.1669,4.1669,0,0,0,0,0,0,0,0,4.1603,4.1603,4.1617,4.1619,4.1621,4.1635,4.1619,4.1623,4.1656,4.1643,4.1659,4.1661,4.1659,4.1659,4.1659,4.1641,4.1642,4.1669,4.1669,4.1668,4.1668,0,0,0,0,0,0,0,4.1603,4.1603,4.1604,4.1617,4.162,4.1629,4.1631,4.162,4.1643,4.1644,4.1648,4.1649,4.166,4.166,4.166,4.1642,4.1669,4.1669,4.1668,4.1668,4.1599,4.1598,0,0,0,0,0,0,4.1599,4.1602,4.1603,4.1604,4.1615,4.1628,4.1631,4.1629,4.1643,4.1647,4.1648,4.1651,4.166,4.1661,4.166,4.1625,4.1668,4.1668,4.1667,4.1601,4.1599,4.1597,0,0,0,0,0,0,4.1599,4.1599,4.1602,4.1604,4.1605,4.1626,4.1624,4.1629,4.1629,4.1646,4.165,4.1644,4.1661,4.1661,4.1645,4.1626,4.1667,4.1667,4.1602,4.16,4.1598,4.1554,0,0,0,0,0,0,4.1599,4.1599,4.1588,4.1604,4.1605,4.1588,4.1623,4.1628,4.1628,4.1632,4.1643,4.1646,4.1663,4.1646,4.1645,4.1626,4.1666,4.1604,4.1601,4.1599,4.1557,4.155,4.1545,0,0,0,0,0,4.1599,4.1573,4.1587,4.1587,4.1592,4.1587,4.1587,4.1608,4.1626,4.1615,4.1626,4.1646,4.1629,4.1644,4.1643,4.1623,4.1605,4.1602,4.1599,4.156,4.1552,4.1545,0,0,0,0,0,0,4.1553,4.1576,4.1591,4.157,4.1577,4.1594,4.158,4.1599,4.1598,4.1602,4.1626,4.1628,4.1609,4.1615,4.1632,4.1594,4.162,4.1617,4.1591,4.1583,4.1577,4.1576,4.1666,0,0,0,0,0,4.154,4.1535,4.1556,4.1535,4.1538,4.1558,4.1557,4.1572,4.1579,4.1581,4.1591,4.1596,4.1592,4.1588,4.1585,4.1559,4.1561,4.1545,4.1539,4.1534,4.153,4.1516,4.1509,4.1587,4.1587,4.1587,0,0,4.1514,4.1526,4.1521,4.1526,4.1533,4.1526,4.156,4.1551,4.1546,4.1579,4.1565,4.1573,4.158,4.1558,4.1549,4.1563,4.1509,4.153,4.1525,4.1524,4.1512,4.1504,4.1498,4.1585,4.1585,4.1586,0,0,4.1463,4.1472,4.1457,4.1463,4.1473,4.1488,4.1484,4.1499,4.1506,4.1492,4.1517,4.1511,4.1503,4.1507,4.1508,4.146,4.1478,4.1458,4.1426,4.1412,4.1406,4.14,4.1383,4.1376,4.1455,4.1455,4.1455,0,4.1429,4.1421,4.1446,4.1436,4.1437,4.1469,4.1453,4.1457,4.1465,4.1465,4.148,4.1472,4.1479,4.1458,4.1447,4.1447,4.1443,4.1456,4.1405,4.14,4.1395,4.1378,4.1372,4.1452,4.1452,4.1453,4.1453,0,4.1378,4.1372,4.1358,4.1367,4.1367,4.1353,4.1375,4.1372,4.1388,4.14,4.1386,4.1396,4.1395,4.1392,4.1407,4.1374,4.1382,4.1401,4.1427,4.1385,4.1369,4.1363,4.1449,4.1449,4.145,4.1451,0,0,4.1296,4.1321,4.1315,4.132,4.1334,4.1329,4.1318,4.1319,4.1315,4.132,4.131,4.1304,4.1322,4.1323,4.1338,4.1327,4.1288,4.1347,4.1348,4.1335,4.1252,4.1237,4.1229,4.1301,4.1299,4.1299,4.1251,0,4.1248,4.123,4.1253,4.123,4.1225,4.1256,4.1245,4.1253,4.1264,4.126,4.1273,4.1268,4.1292,4.1293,4.1283,4.1294,4.1271,4.1298,4.129,4.1289,4.1286,4.1221,4.1205,4.1159,4.1245,4.1244,4.1243,0,4.1188,4.1192,4.1169,4.1186,4.1184,4.1175,4.1178,4.1175,4.1183,4.1193,4.1195,4.1214,4.1203,4.123,4.1214,4.1232,4.1231,4.1236,4.1235,4.1233,4.1263,4.1217,4.1145,4.1138,4.1234,4.1235,4.1236,0,4.113,4.113,4.1116,4.1119,4.1138,4.1131,4.1138,4.1149,4.1148,4.1151,4.1151,4.1152,4.1152,4.1151,4.117,4.1188,4.1152,4.1181,4.1158,4.1158,4.1148,4.1148,4.1074,4.1148,4.1149,4.1149,4.1149,0,4.1073,4.1057,4.109,4.1081,4.1065,4.1091,4.1073,4.1084,4.1093,4.1086,4.1113,4.1106,4.1132,4.1127,4.1142,4.1127,4.1126,4.1133,4.1136,4.113,4.1129,4.1127,4.1131,4.1147,4.1147,4.1148,4.1148,0,4.1004,4.1026,4.1013,4.1033,4.1038,4.1024,4.1041,4.1033,4.1048,4.1039,4.1038,4.1059,4.1055,4.1075,4.1074,4.1084,4.106,4.107,4.1058,4.106,4.1036,4.1038,4.0958,4.0948,4.103,4.1029,4.1029,0,4.0965,4.0954,4.0974,4.0972,4.0979,4.0975,4.0976,4.1001,4.1,4.101,4.1001,4.1,4.1,4.0992,4.1007,4.1006,4.1015,4.0987,4.1015,4.1009,4.1014,4.1014,4.1012,4.0981,4.098,4.0979,4.0978,0,4.0894,4.0906,4.0906,4.091,4.091,4.0914,4.092,4.0917,4.0944,4.0942,4.0939,4.0939,4.0939,4.0937,4.094,4.0947,4.0966,4.097,4.0964,4.0956,4.0949,4.0952,4.1041,4.0971,4.0972,4.0972,4.0973,4.0973,4.0839,4.083,4.0843,4.0843,4.085,4.0855,4.0849,4.0864,4.0862,4.0865,4.088,4.0875,4.0884,4.089,4.0895,4.089,4.0903,4.0896,4.0893,4.0891,4.0886,4.0952,4.0891,4.0891,4.0891,4.0891,4.0892,0,4.0768,4.0778,4.0778,4.0786,4.0785,4.0807,4.0814,4.0812,4.0807,4.0815,4.0816,4.0812,4.0811,4.0826,4.0827,4.082,4.0829,4.0819,4.0819,4.082,4.0875,4.0879,4.0811,4.0811,4.0811,4.0811,4.0811,4.0811,4.0731,4.0719,4.0732,4.0723,4.0733,4.0729,4.0732,4.0736,4.0743,4.0739,4.0738,4.0749,4.076,4.0761,4.0761,4.0765,4.0764,4.075,4.0757,4.0808,4.0816,4.0823,4.0827,4.075,4.075,4.0703,4.0702,4.0702]}]]